Regional Weather Roundup
Issued by NWS Midland/Odessa, TX

Skip options and go directly to product.
Home | Oldest Version | Previous Version | Current Version | All | Text Only | Save Text | Print | Product List | Glossary On

Skip product version selection by date and time.   
431
ASUS44 KMAF 271310
RWRMAF
MIDLAND AREA WEATHER ROUNDUP
NATIONAL WEATHER SERVICE MIDLAND TX
800 AM CDT SAT AUG 27 2016

...IN SOUTHWEST TEXAS AND SOUTHEAST NEW MEXICO...

CITY           SKY/WX    TMP DP  RH WIND       PRES   REMARKS
ALPINE         CLEAR     62  58  89 SW6       30.22R
ANDREWS        NOT AVBL
ARTESIA        CLEAR     64  64 100 SE5       30.11R
BIG SPRING     MOCLDY    70  67  90 CALM      30.12R
CARLSBAD       CLEAR     65  63  93 CALM      30.09R
DRYDEN           N/A     70  69  97 NE5       30.03S
FORT STOCKTON  CLEAR     65  63  93 S6        30.08R
GUAD PASS      CLEAR     63  59  87 SW8       30.22R
HOBBS          CLEAR     63  63 100 CALM      30.13R
MARFA          CLEAR    N/A N/A N/A N6        30.20R
MIDLAND AIRPK  CLOUDY    70  67  89 CALM      30.11R FOG
MIDLAND INTL   CLOUDY    70  66  87 E3        30.10R
ODESSA         CLOUDY    69  63  81 E7        30.11R
PECOS          CLEAR     65  63  93 SW3       30.07R
PRESIDIO       NOT AVBL
SEMINOLE       CLEAR     65  64  96 CALM      30.12S
SNYDER           N/A     68  68  98 S6        30.09R
WINK           CLEAR     68  64  87 E9        30.06R
$$
...OTHER STATIONS IN TEXAS...

CITY           SKY/WX    TMP DP  RH WIND       PRES   REMARKS
ABILENE        CLOUDY    74  69  85 S9        30.05S
AMARILLO       CLEAR     63  60  90 S8        30.10R
AUSTIN         MOSUNNY   74  72  93 CALM      30.01R
BROWNSVILLE    SUNNY     78  77  96 CALM      29.94R
CORPUS CHRISTI MOSUNNY   77  76  96 N5        29.96R
DALLAS FTW     MOSUNNY   75  71  87 CALM      30.02R
DEL RIO        PTCLDY    75  72  90 E9        29.98S
EL PASO        MOCLDY    71  61  70 N5        30.10R
HOUSTON INT    CLOUDY    76  73  91 VRB5      29.99R
LUBBOCK        PTCLDY    67  63  87 S7        30.09R
SAN ANGELO     CLOUDY    71  67  87 S5        30.06S
SAN ANTONIO    MOSUNNY   76  72  87 CALM      30.02R
WACO           SUNNY     73  73 100 E3        30.03R FOG
WICHITA FALLS  NOT AVBL
$$
...OTHER LOCATIONS IN NEW MEXICO...

CITY           SKY/WX    TMP DP  RH WIND       PRES   REMARKS
ALAMAGORDO     CLOUDY    64  57  77 S7        30.14R
ALBUQUERQUE    PTCLDY    60  50  69 CALM      30.20R
CANNON AFB     MOCLDY    62  62 100 W5        30.14R
CLOVIS         CLEAR     63  55  77 W7        30.14R
HOLLOMAN AFB   NOT AVBL
ROSWELL        CLEAR     64  61  90 SE5       30.10R
RUIDOSO          N/A     54  46  76 W8        30.29S
SANTA FE       CLEAR     51  49  92 N8        30.24R
TRUTH OR CONSE CLOUDY    62  53  72 NW6       30.15R
TUCUMCARI      PTCLDY    65  63  93 W6        30.11S
$$

USA.gov is the U.S. government's official web portal to all federal, state and local government web resources and services.